Flag for Brazil Weather past 2 weeks in Tabatinga, Amazonas, Brazil

Now
81 °F

Passing clouds.


Feels Like: 87 °F
Forecast: N/A
Wind: No wind

Location: Leticia / Vasquez Cobo

Current Time: Jul 29, 2014 at 6:35:55 PM

Latest Report: Jul 29, 2014 at 6:00 PM


Visibility: N/A

Pressure: 29.98 "Hg

Humidity: 89%

Dew point: 77 °F

Location of TabatingaLocation

Historic Weather in Tabatinga — Graph

°F

Tabatinga temperature yesterday

Maximum temperature yesterday: 86 °F (at 1:00 PM)
Minimum temperature yesterday: 70 °F (at 6:00 AM)
Average temperature yesterday: 78 °F

Past Weeks' High & Low Weather Summary

 TemperatureHumidityPressure
High91 °F (Jul 25, 2:00 PM)100% (Jul 14, 7:00 PM)30.12 "Hg (Jul 14, 7:00 PM)
Low68 °F (Jul 29, 5:00 AM)63% (Jul 25, 2:00 PM)29.77 "Hg (Jul 23, 12:00 PM)
Average78 °F90%29.98 "Hg
* Reported Jul 14 5:00 PM — Jul 29 5:00 PM, Tabatinga, Weather by CustomWeather, © 2014

Note: Actual official high and low records may vary slightly from our data, if they occured in-between our weather recording intervals... More about our weather records

Advertising

Tabatinga weather history for previous 24 hours

 ConditionsComfort  
Time TempWeatherWind HumidityBarometerVisibility
5:00 PM
Jul 29
84 °FPassing clouds.No wind74%29.97 "HgN/A
4:00 PM86 °FScattered clouds.2 mph70%29.97 "HgN/A
3:00 PM84 °FPartly sunny.No wind70%29.99 "HgN/A
2:00 PM84 °FPartly sunny.No wind79%30.01 "HgN/A
1:00 PM84 °FPartly sunny.2 mph74%30.03 "HgN/A
12:00 PM82 °FPartly sunny.3 mph79%30.06 "HgN/A
11:00 AM82 °FPartly sunny.3 mph74%30.09 "HgN/A
10:00 AM79 °FPartly sunny.2 mph79%30.09 "HgN/A
9:00 AM79 °FSunny.3 mph79%30.09 "Hg10 mi
8:00 AM75 °FSunny.3 mph83%30.06 "Hg10 mi
7:00 AM72 °FSunny.No wind94%30.05 "Hg10 mi
6:00 AM70 °FSunny.No wind100%30.03 "Hg10 mi
5:00 AM68 °FClear.No wind100%30.02 "Hg10 mi
4:00 AM72 °FClear.No wind100%30.01 "Hg10 mi
3:00 AM73 °FClear.No wind94%30.01 "Hg10 mi
1:00 AM73 °FClear.No wind94%30.01 "Hg10 mi
12:00 AM73 °FClear.No wind100%30.02 "Hg10 mi
11:00 PM
Jul 28
75 °FClear.No wind94%30.03 "Hg10 mi
10:00 PM73 °FClear.No wind100%30.02 "Hg10 mi
9:00 PM77 °FClear.No wind94%30.00 "Hg10 mi
8:00 PM77 °FClear.No wind94%29.99 "Hg10 mi
7:00 PM79 °FClear.No wind94%29.97 "Hg10 mi
6:00 PM81 °FClear.No wind89%29.96 "Hg10 mi
Weather by CustomWeather, © 2014

See weather overviewHow to use our weather pages